When you browse on this site, cookies collect data to enhance your experience and personalize the content and advertising you see.
Visit our Privacy Policy to learn more. By continuing to use the site, you agree to this use of cookies and data.
  • In Hungary
  • List of Countries
  • For 7 days
  • Water Temperature
  • Weather Map
  • News
  • Weather Widgets
  • user-avatar
    Login

    Hourly Weather Remchugovo

    Today, 14 October, Monday

    Time Temperature Precipitation Wind Pressure Humidity
    00:00 +6°C° 0 mm 5 mps 733 mmHg 87%
    01:00 +5°C° 0 mm 4 mps 733 mmHg 88%
    02:00 +5°C° 0 mm 5 mps 733 mmHg 90%
    03:00 +5°C° 0 mm 5 mps 733 mmHg 91%
    04:00 +4°C° 0 mm 6 mps 733 mmHg 94%
    05:00 +4°C° 0 mm 6 mps 733 mmHg 93%
    06:00 +4°C° 0 mm 6 mps 733 mmHg 92%
    07:00 +4°C° 0 mm 6 mps 734 mmHg 91%
    08:00 +5°C° 0 mm 7 mps 734 mmHg 88%
    09:00 +5°C° 0 mm 7 mps 735 mmHg 84%
    10:00 +6°C° 0 mm 7 mps 735 mmHg 80%
    11:00 +6°C° 0.1 mm 7 mps 735 mmHg 78%
    12:00 +8°C° 0.1 mm 7 mps 736 mmHg 75%
    13:00 +8°C° 0.1 mm 7 mps 736 mmHg 73%
    14:00 +8°C° 0.1 mm 7 mps 737 mmHg 76%
    15:00 +6°C° 0.1 mm 7 mps 737 mmHg 80%
    16:00 +6°C° 0.1 mm 7 mps 737 mmHg 83%
    17:00 +6°C° 0.1 mm 7 mps 737 mmHg 84%
    18:00 +6°C° 0.1 mm 7 mps 738 mmHg 84%
    19:00 +6°C° 0.1 mm 7 mps 738 mmHg 84%
    20:00 +5°C° 0.1 mm 6 mps 738 mmHg 86%
    21:00 +4°C° 0.1 mm 6 mps 738 mmHg 87%
    22:00 +5°C° 0.1 mm 5 mps 738 mmHg 89%
    23:00 +5°C° 0 mm 5 mps 738 mmHg 90%

    Tomorrow, 15 October, Tuesday

    Time Temperature Precipitation Wind Pressure Humidity
    00:00 +5°C° 0 mm 4 mps 738 mmHg 90%
    01:00 +4°C° 0 mm 4 mps 738 mmHg 91%
    02:00 +4°C° 0 mm 4 mps 738 mmHg 92%
    03:00 +4°C° 0 mm 4 mps 738 mmHg 93%
    04:00 +4°C° 0 mm 4 mps 737 mmHg 93%
    05:00 +4°C° 0.8 mm 4 mps 736 mmHg 94%
    06:00 +5°C° 0.8 mm 5 mps 735 mmHg 95%
    07:00 +5°C° 0.8 mm 5 mps 734 mmHg 96%
    08:00 +6°C° 1.6 mm 5 mps 733 mmHg 96%
    09:00 +6°C° 1.6 mm 5 mps 733 mmHg 97%
    10:00 +7°C° 1.6 mm 5 mps 732 mmHg 97%
    11:00 +8°C° 0.6 mm 6 mps 732 mmHg 95%
    12:00 +10°C° 0.6 mm 6 mps 731 mmHg 93%
    13:00 +11°C° 0.6 mm 7 mps 731 mmHg 92%
    14:00 +10°C° 0.5 mm 6 mps 732 mmHg 91%
    15:00 +10°C° 0.5 mm 5 mps 732 mmHg 91%
    16:00 +9°C° 0.5 mm 5 mps 732 mmHg 91%
    17:00 +9°C° 0.4 mm 5 mps 733 mmHg 92%
    18:00 +8°C° 0.4 mm 5 mps 733 mmHg 92%
    19:00 +7°C° 0.4 mm 5 mps 734 mmHg 93%
    20:00 +7°C° 0.2 mm 5 mps 735 mmHg 91%
    21:00 +5°C° 0.2 mm 6 mps 736 mmHg 89%
    22:00 +4°C° 0.2 mm 6 mps 736 mmHg 87%
    23:00 +5°C° 0 mm 5 mps 737 mmHg 87%

    Day after tomorrow, 16 October, Wednesday

    Time Temperature Precipitation Wind Pressure Humidity
    00:00 +3°C° 0 mm 5 mps 738 mmHg 88%
    01:00 +3°C° 0 mm 4 mps 738 mmHg 88%
    02:00 +2°C° 0 mm 5 mps 739 mmHg 87%
    03:00 +1°C° 0 mm 5 mps 740 mmHg 85%
    04:00 +1°C° 0 mm 5 mps 740 mmHg 84%
    05:00 +1°C° 0.1 mm 5 mps 741 mmHg 86%
    06:00 +1°C° 0.1 mm 5 mps 741 mmHg 87%
    07:00 -1°C° 0.1 mm 6 mps 741 mmHg 89%
    08:00 +1°C° 0 mm 6 mps 742 mmHg 85%
    09:00 +1°C° 0 mm 6 mps 743 mmHg 81%
    10:00 +2°C° 0 mm 6 mps 743 mmHg 77%
    11:00 +2°C° 0 mm 6 mps 744 mmHg 76%
    12:00 +2°C° 0 mm 6 mps 744 mmHg 75%
    13:00 +2°C° 0 mm 6 mps 745 mmHg 73%
    14:00 +2°C° 0 mm 5 mps 745 mmHg 73%
    15:00 +2°C° 0 mm 5 mps 745 mmHg 73%
    16:00 +2°C° 0 mm 5 mps 746 mmHg 73%
    17:00 +1°C° 0 mm 5 mps 746 mmHg 77%
    18:00 0°C° 0 mm 4 mps 746 mmHg 81%
    19:00 0°C° 0 mm 3 mps 747 mmHg 85%
    20:00 +1°C° 0 mm 3 mps 747 mmHg 83%
    21:00 +2°C° 0 mm 2 mps 747 mmHg 81%
    22:00 +2°C° 0 mm 2 mps 748 mmHg 79%
    23:00 +1°C° 0 mm 2 mps 748 mmHg 82%

    17 October, Thursday

    Time Temperature Precipitation Wind Pressure Humidity
    00:00 +1°C° 0 mm 2 mps 748 mmHg 84%
    01:00 -1°C° 0 mm 2 mps 748 mmHg 87%
    02:00 +1°C° 0 mm 1 mps 748 mmHg 87%
    03:00 +1°C° 0 mm 1 mps 748 mmHg 87%
    04:00 +1°C° 0 mm 1 mps 748 mmHg 87%
    05:00 +1°C° 0 mm 1 mps 748 mmHg 86%
    06:00 +1°C° 0 mm 1 mps 748 mmHg 86%
    07:00 -1°C° 0 mm 2 mps 748 mmHg 86%
    08:00 +1°C° 0 mm 2 mps 748 mmHg 84%
    09:00 +1°C° 0 mm 3 mps 748 mmHg 82%
    10:00 +1°C° 0 mm 4 mps 748 mmHg 81%
    11:00 +1°C° 0.2 mm 4 mps 747 mmHg 83%
    12:00 +1°C° 0.2 mm 5 mps 747 mmHg 85%
    13:00 +1°C° 0.2 mm 6 mps 747 mmHg 87%
    14:00 +1°C° 0.1 mm 6 mps 746 mmHg 83%
    15:00 +2°C° 0.1 mm 6 mps 745 mmHg 80%
    16:00 +2°C° 0.1 mm 7 mps 744 mmHg 77%
    17:00 +2°C° 0 mm 7 mps 744 mmHg 76%
    18:00 +1°C° 0 mm 8 mps 743 mmHg 75%
    19:00 +1°C° 0 mm 8 mps 742 mmHg 74%
    20:00 +1°C° 0 mm 8 mps 742 mmHg 73%
    21:00 +1°C° 0 mm 9 mps 741 mmHg 73%
    22:00 +1°C° 0 mm 9 mps 740 mmHg 72%
    23:00 +1°C° 0 mm 9 mps 740 mmHg 71%

    18 October, Friday

    Time Temperature Precipitation Wind Pressure Humidity
    00:00 +1°C° 0 mm 8 mps 739 mmHg 70%
    01:00 +1°C° 0 mm 8 mps 738 mmHg 69%
    02:00 +1°C° 0.1 mm 8 mps 737 mmHg 70%
    03:00 +1°C° 0.1 mm 8 mps 737 mmHg 70%
    04:00 +1°C° 0.1 mm 8 mps 736 mmHg 71%
    05:00 +2°C° 0.3 mm 8 mps 736 mmHg 76%
    06:00 +2°C° 0.3 mm 8 mps 735 mmHg 81%
    07:00 +2°C° 0.3 mm 8 mps 735 mmHg 85%
    08:00 +2°C° 0.1 mm 8 mps 735 mmHg 86%
    09:00 +4°C° 0.1 mm 8 mps 735 mmHg 87%
    10:00 +4°C° 0.1 mm 8 mps 736 mmHg 88%
    11:00 +3°C° 0 mm 7 mps 736 mmHg 83%
    12:00 +2°C° 0 mm 7 mps 736 mmHg 77%
    13:00 0°C° 0 mm 7 mps 737 mmHg 72%
    14:00 0°C° 0 mm 7 mps 737 mmHg 71%
    15:00 -1°C° 0 mm 8 mps 738 mmHg 71%
    16:00 -1°C° 0 mm 8 mps 738 mmHg 70%
    17:00 -1°C° 0 mm 8 mps 738 mmHg 72%
    18:00 -2°C° 0 mm 8 mps 739 mmHg 75%
    19:00 -2°C° 0 mm 8 mps 739 mmHg 77%
    20:00 -4°C° 0 mm 8 mps 740 mmHg 78%
    21:00 -4°C° 0 mm 8 mps 740 mmHg 79%
    22:00 -5°C° 0 mm 8 mps 741 mmHg 81%
    23:00 -5°C° 0 mm 8 mps 741 mmHg 81%

    19 October, Saturday

    Time Temperature Precipitation Wind Pressure Humidity
    00:00 -5°C° 0 mm 8 mps 741 mmHg 80%
    01:00 -5°C° 0 mm 8 mps 742 mmHg 80%
    02:00 -5°C° 0 mm 8 mps 742 mmHg 79%
    03:00 -5°C° 0 mm 8 mps 743 mmHg 78%
    04:00 -5°C° 0 mm 8 mps 743 mmHg 77%
    05:00 -6°C° 0 mm 7 mps 744 mmHg 78%
    06:00 -6°C° 0 mm 7 mps 744 mmHg 80%
    07:00 -6°C° 0 mm 6 mps 745 mmHg 81%
    08:00 -5°C° 0 mm 6 mps 745 mmHg 78%
    09:00 -5°C° 0 mm 6 mps 745 mmHg 75%
    10:00 -4°C° 0 mm 6 mps 746 mmHg 71%
    11:00 -3°C° 0 mm 6 mps 746 mmHg 65%
    12:00 -2°C° 0 mm 6 mps 747 mmHg 59%
    13:00 0°C° 0 mm 5 mps 747 mmHg 54%
    14:00 0°C° 0 mm 5 mps 747 mmHg 54%
    15:00 0°C° 0 mm 5 mps 747 mmHg 54%
    16:00 -1°C° 0 mm 4 mps 748 mmHg 54%
    17:00 -2°C° 0 mm 4 mps 748 mmHg 59%
    18:00 -2°C° 0 mm 3 mps 748 mmHg 64%
    19:00 -3°C° 0 mm 2 mps 748 mmHg 69%
    20:00 -3°C° 0 mm 2 mps 749 mmHg 69%
    21:00 -3°C° 0 mm 2 mps 749 mmHg 69%
    22:00 -1°C° 0 mm 1 mps 749 mmHg 69%
    23:00 -1°C° 0 mm 1 mps 749 mmHg 68%
    Show more